Home > Weather > Stonewall > Past weeks

Flag for Canada Past Weather in Stonewall, Manitoba, Canada — Yesterday and Last 2 Weeks

Now
63 °F

Passing clouds.


Feels Like: 63 °F
Forecast: 51 / 72 °F
Wind: 3 mph from North

Location: Winnipeg Int. Airportman.

Current Time: May 29, 2016 at 10:04:30 PM

Latest Report: May 29, 2016 at 9:00 PM


Visibility: 15 mi

Pressure: 29.90 "Hg

Humidity: 73%

Dew Point: 54 °F

Location of StonewallLocation

Past Weather in Stonewall — Graph

°F

Stonewall Temperature Yesterday

Maximum temperature yesterday: 66 °F (at 3:00 PM)
Minimum temperature yesterday: 55 °F (at 1:00 AM)
Average temperature yesterday: 59 °F

High & Low Weather Summary for the Past Weeks

 TemperatureHumidityPressure
High82 °F (May 21, 3:00 PM)100% (May 16, 4:00 AM)30.38 "Hg (May 16, 4:00 AM)
Low28 °F (May 16, 5:00 AM)19% (May 18, 2:00 PM)29.48 "Hg (May 23, 2:00 AM)
Average61 °F61%29.92 "Hg
* Reported May 14 9:00 PM — May 29 9:00 PM, Stonewall, Weather by CustomWeather, © 2016

Note: Actual official high and low records may vary slightly from our data, if they occured in-between our weather recording intervals... More about our weather records

Advertising

Stonewall Weather History for the Previous 24 Hours

Scroll right to see more
 ConditionsComfort  
Time TempWeatherWind HumidityBarometerVisibility
9:00 PM
Sun, May 29
63 °FPassing clouds.3 mph73%29.90 "Hg15 mi
8:00 PM66 °FScattered clouds.12 mph64%29.90 "Hg15 mi
7:00 PM68 °FPassing clouds.8 mph60%29.89 "Hg15 mi
6:00 PM70 °FPassing clouds.13 mph53%29.89 "Hg15 mi
5:00 PM68 °FScattered clouds.13 mph60%29.90 "Hg15 mi
4:00 PM66 °FPartly sunny.14 mph64%29.91 "Hg15 mi
3:00 PM66 °FPartly sunny.16 mph64%29.91 "Hg15 mi
2:00 PM66 °FPartly sunny.14 mph73%29.91 "Hg15 mi
1:00 PM63 °FPartly sunny.13 mph77%29.91 "Hg15 mi
12:00 PM61 °FPartly sunny.14 mph83%29.91 "Hg15 mi
11:00 AM63 °FPartly sunny.13 mph77%29.91 "Hg15 mi
10:00 AM61 °FBroken clouds.10 mph83%29.92 "Hg15 mi
9:00 AM57 °FBroken clouds.9 mph88%29.93 "Hg15 mi
8:00 AM54 °FMostly cloudy.8 mph100%29.93 "Hg10 mi
7:00 AM54 °FMostly cloudy.7 mph94%29.92 "Hg10 mi
6:00 AM54 °FMostly cloudy.7 mph94%29.92 "Hg10 mi
5:00 AM54 °FMostly cloudy.7 mph94%29.91 "Hg10 mi
4:00 AM54 °FMostly cloudy.7 mph94%29.91 "Hg10 mi
3:00 AM55 °FFog.6 mph94%29.91 "Hg6 mi
2:00 AM55 °FPassing clouds.10 mph94%29.92 "Hg15 mi
1:00 AM57 °FOvercast.9 mph88%29.92 "Hg15 mi
12:00 AM57 °FPassing clouds.8 mph88%29.93 "Hg15 mi
11:00 PM
Sat, May 28
57 °FPassing clouds.8 mph88%29.94 "Hg15 mi
10:00 PM57 °FPartly sunny.9 mph94%29.93 "Hg15 mi
Weather by CustomWeather, © 2016

See weather overviewHow to use our weather pages